TGW656 WSSS-VVPQ

Flight info

Callsign TGW656
Flight time 1h 25m
Altitude 36000
Route VMR6A VMR L642 ENREP/N0440F380 M753 IPRIX/K0811F380 M753 ADBOP ADBOP1E
Aircraft E190/M-SDE3GILORVW/S

Departure

Time 2026-04-20 02:02
Airport Singapore Changi Airport (WSSS)

Arrival

Time 2026-04-20 03:27
Airport Phú Quốc International Airport (VVPQ)
Time Latitude Longitude Altitude Speed Heading
2026-04-20 01:42 1.33617 103.98399 24 ft 0 kts 292°
2026-04-20 01:51 1.33614 103.98405 24 ft 4 kts 293°
2026-04-20 01:52 1.33602 103.98428 24 ft 4 kts 315°
2026-04-20 01:52 1.33583 103.98438 27 ft 3 kts 20°
2026-04-20 01:52 1.33580 103.98437 24 ft 0 kts 23°
2026-04-20 01:54 1.33587 103.98440 24 ft 0 kts 22°
2026-04-20 01:57 1.33604 103.98447 26 ft 9 kts 22°
2026-04-20 01:57 1.33656 103.98481 26 ft 9 kts 73°
2026-04-20 01:58 1.33619 103.98512 24 ft 9 kts 186°
2026-04-20 01:58 1.33591 103.98503 24 ft 0 kts 201°
2026-04-20 01:58 1.33590 103.98503 24 ft 1 kts 201°
2026-04-20 01:58 1.33525 103.98476 24 ft 14 kts 202°
2026-04-20 01:59 1.33430 103.98436 25 ft 16 kts 202°
2026-04-20 01:59 1.33324 103.98391 24 ft 17 kts 206°
2026-04-20 01:59 1.33213 103.98335 25 ft 19 kts 200°
2026-04-20 01:59 1.33091 103.98282 24 ft 20 kts 202°
2026-04-20 02:00 1.33002 103.98273 25 ft 12 kts 143°
2026-04-20 02:00 1.32962 103.98352 26 ft 13 kts 112°
2026-04-20 02:00 1.32925 103.98440 27 ft 14 kts 113°
2026-04-20 02:00 1.32936 103.98523 27 ft 14 kts 35°
2026-04-20 02:01 1.32964 103.98536 28 ft 0 kts 23°
2026-04-20 02:01 1.32965 103.98536 28 ft 2 kts 23°
2026-04-20 02:01 1.33187 103.98629 27 ft 72 kts 22°
2026-04-20 02:02 1.33875 103.98917 27 ft 140 kts 22°
2026-04-20 02:02 1.34888 103.99335 498 ft 163 kts 22°
2026-04-20 02:02 1.35981 103.99804 1128 ft 188 kts 24°
2026-04-20 02:02 1.37267 104.00354 1628 ft 218 kts 24°
2026-04-20 02:03 1.38735 104.00979 2374 ft 240 kts 24°
2026-04-20 02:03 1.40309 104.01647 3349 ft 258 kts 24°
2026-04-20 02:03 1.42026 104.02372 4276 ft 274 kts 24°
2026-04-20 02:03 1.43808 104.03123 5372 ft 280 kts 23°
2026-04-20 02:04 1.45620 104.03882 6517 ft 284 kts 23°
2026-04-20 02:04 1.47444 104.04649 7616 ft 286 kts 21°
2026-04-20 02:04 1.49389 104.05036 8652 ft 289 kts 355°
2026-04-20 02:04 1.51302 104.04442 9715 ft 291 kts 333°
2026-04-20 02:05 1.53105 104.03508 10540 ft 303 kts 332°
2026-04-20 02:05 1.55017 104.02495 11253 ft 319 kts 331°
2026-04-20 02:05 1.56998 104.01442 12110 ft 327 kts 332°
2026-04-20 02:05 1.59019 104.00370 13116 ft 330 kts 332°
2026-04-20 02:06 1.61063 103.99281 14040 ft 335 kts 331°
2026-04-20 02:06 1.63127 103.98166 14947 ft 339 kts 331°
2026-04-20 02:06 1.65213 103.97026 15857 ft 344 kts 331°
2026-04-20 02:06 1.67324 103.95863 16750 ft 349 kts 330°
2026-04-20 02:07 1.69458 103.94673 17577 ft 354 kts 330°
2026-04-20 02:07 1.71590 103.93469 18354 ft 359 kts 330°
2026-04-20 02:07 1.73774 103.92224 19019 ft 364 kts 330°
2026-04-20 02:07 1.76064 103.91109 19531 ft 373 kts 343°
2026-04-20 02:08 1.78642 103.90766 20054 ft 381 kts 355°
2026-04-20 02:08 1.81334 103.90610 20351 ft 395 kts 356°
2026-04-20 02:08 1.84107 103.90459 20868 ft 401 kts 356°
2026-04-20 02:08 1.86904 103.90292 21494 ft 404 kts 356°
2026-04-20 02:09 1.89715 103.90115 22091 ft 408 kts 356°
2026-04-20 02:09 1.92568 103.89936 22668 ft 412 kts 356°
2026-04-20 02:09 1.95433 103.89756 23236 ft 415 kts 356°
2026-04-20 02:09 1.97350 103.89636 23586 ft 418 kts 356°
2026-04-20 02:10 2.01211 103.89398 24206 ft 421 kts 356°
2026-04-20 02:10 2.04148 103.89217 24647 ft 424 kts 356°
2026-04-20 02:10 2.07104 103.89037 25070 ft 427 kts 356°
2026-04-20 02:10 2.09107 103.88916 25353 ft 429 kts 356°
2026-04-20 02:11 2.12055 103.88739 25742 ft 431 kts 356°
2026-04-20 02:11 2.15060 103.88558 26125 ft 434 kts 356°
2026-04-20 02:11 2.18083 103.88379 26515 ft 436 kts 356°
2026-04-20 02:11 2.21124 103.88199 26883 ft 439 kts 356°
2026-04-20 02:12 2.24178 103.88019 27308 ft 441 kts 356°
2026-04-20 02:12 2.27253 103.87839 27678 ft 443 kts 356°
2026-04-20 02:12 2.30333 103.87661 28042 ft 446 kts 356°
2026-04-20 02:12 2.33442 103.87480 28385 ft 448 kts 356°
2026-04-20 02:13 2.36565 103.87300 28722 ft 451 kts 356°
2026-04-20 02:13 2.39703 103.87299 29048 ft 452 kts
2026-04-20 02:13 2.42819 103.87694 29549 ft 450 kts
2026-04-20 02:13 2.45908 103.88181 30033 ft 449 kts
2026-04-20 02:14 2.48950 103.88664 30396 ft 449 kts
2026-04-20 02:14 2.52035 103.89141 30721 ft 448 kts
2026-04-20 02:14 2.55117 103.89605 31055 ft 448 kts
2026-04-20 02:14 2.58197 103.90067 31396 ft 447 kts
2026-04-20 02:15 2.61271 103.90527 31784 ft 445 kts
2026-04-20 02:15 2.64327 103.90984 32129 ft 445 kts
2026-04-20 02:15 2.67401 103.91444 32409 ft 446 kts
2026-04-20 02:15 2.70465 103.91903 32733 ft 446 kts
2026-04-20 02:16 2.73538 103.92364 33057 ft 447 kts
2026-04-20 02:16 2.76574 103.92819 33384 ft 447 kts
2026-04-20 02:16 2.79684 103.93286 33691 ft 447 kts
2026-04-20 02:16 2.82723 103.93742 33975 ft 448 kts
2026-04-20 02:17 2.85804 103.94205 34243 ft 448 kts
2026-04-20 02:17 2.88882 103.94668 34534 ft 447 kts
2026-04-20 02:17 2.91954 103.95130 34810 ft 446 kts
2026-04-20 02:17 2.95019 103.95595 35092 ft 445 kts
2026-04-20 02:18 2.98072 103.96061 35381 ft 444 kts
2026-04-20 02:18 3.01120 103.96526 35686 ft 442 kts
2026-04-20 02:18 3.04162 103.96990 35957 ft 441 kts
2026-04-20 02:18 3.07132 103.97442 36135 ft 438 kts
2026-04-20 02:19 3.10141 103.97900 35997 ft 437 kts
2026-04-20 02:19 3.13146 103.98357 35926 ft 435 kts
2026-04-20 02:19 3.19143 103.99270 35948 ft 436 kts
2026-04-20 02:20 3.25149 104.00184 35949 ft 436 kts
2026-04-20 02:20 3.31149 104.01097 35944 ft 436 kts
2026-04-20 02:21 3.40086 104.02440 35942 ft 434 kts
2026-04-20 02:22 3.46058 104.03331 35944 ft 434 kts
2026-04-20 02:22 3.52033 104.04224 35942 ft 434 kts
2026-04-20 02:23 3.58004 104.05117 35942 ft 434 kts
2026-04-20 02:23 3.63978 104.06010 35943 ft 434 kts
2026-04-20 02:24 3.69914 104.06898 35941 ft 434 kts
2026-04-20 02:24 3.75906 104.07794 35948 ft 436 kts
2026-04-20 02:25 3.81901 104.08691 35943 ft 436 kts
2026-04-20 02:25 3.87900 104.09588 35943 ft 436 kts
2026-04-20 02:26 3.93856 104.10481 35946 ft 436 kts
2026-04-20 02:26 3.99856 104.11379 35946 ft 436 kts
2026-04-20 02:27 4.05859 104.12279 35946 ft 436 kts
2026-04-20 02:27 4.11856 104.13178 35945 ft 436 kts
2026-04-20 02:28 4.17855 104.14077 35946 ft 436 kts
2026-04-20 02:28 4.23815 104.14970 35946 ft 436 kts
2026-04-20 02:29 4.29815 104.15869 35945 ft 436 kts
2026-04-20 02:29 4.35815 104.16769 35946 ft 436 kts
2026-04-20 02:30 4.41808 104.17668 35945 ft 436 kts
2026-04-20 02:30 4.47767 104.18562 35939 ft 428 kts
2026-04-20 02:31 4.53615 104.19439 35951 ft 428 kts
2026-04-20 02:31 4.59519 104.20325 35944 ft 429 kts
2026-04-20 02:32 4.65423 104.21211 35944 ft 429 kts
2026-04-20 02:32 4.71316 104.22095 35942 ft 428 kts
2026-04-20 02:33 4.77165 104.22973 35944 ft 428 kts
2026-04-20 02:33 4.83059 104.23859 35943 ft 430 kts
2026-04-20 02:34 4.88995 104.24398 35973 ft 428 kts 356°
2026-04-20 02:34 4.94949 104.24107 35938 ft 428 kts 355°
2026-04-20 02:35 5.00887 104.23781 35943 ft 428 kts 355°
2026-04-20 02:35 5.06790 104.23463 35946 ft 428 kts 355°
2026-04-20 02:36 5.12734 104.23146 35944 ft 428 kts 355°
2026-04-20 02:36 5.18672 104.22831 35944 ft 429 kts 355°
2026-04-20 02:37 5.24645 104.22512 35944 ft 430 kts 355°
2026-04-20 02:37 5.30579 104.22195 35944 ft 430 kts 355°
2026-04-20 02:38 5.36548 104.21876 35944 ft 429 kts 355°
2026-04-20 02:38 5.42518 104.21558 35944 ft 430 kts 355°
2026-04-20 02:39 5.48482 104.21240 35940 ft 429 kts 355°
2026-04-20 02:39 5.54438 104.20922 35943 ft 429 kts 355°
2026-04-20 02:40 5.60351 104.20607 35940 ft 428 kts 355°
2026-04-20 02:40 5.66297 104.20289 35940 ft 428 kts 355°
2026-04-20 02:41 5.72246 104.19971 35939 ft 428 kts 355°
2026-04-20 02:41 5.78203 104.19653 35941 ft 428 kts 355°
2026-04-20 02:42 5.84151 104.19335 35942 ft 428 kts 355°
2026-04-20 02:42 5.90101 104.19017 35941 ft 428 kts 355°
2026-04-20 02:43 5.96006 104.18702 35942 ft 427 kts 355°
2026-04-20 02:43 6.01946 104.18384 35940 ft 427 kts 355°
2026-04-20 02:44 6.07886 104.18066 35937 ft 427 kts 355°
2026-04-20 02:44 6.13821 104.17748 35937 ft 428 kts 355°
2026-04-20 02:45 6.19724 104.17433 35937 ft 428 kts 355°
2026-04-20 02:45 6.25668 104.17115 35940 ft 427 kts 355°
2026-04-20 02:46 6.31597 104.16798 35938 ft 425 kts 356°
2026-04-20 02:46 6.37502 104.16482 35941 ft 425 kts 356°
2026-04-20 02:47 6.43416 104.16164 35940 ft 426 kts 356°
2026-04-20 02:47 6.49290 104.15850 35940 ft 425 kts 356°
2026-04-20 02:48 6.55202 104.15533 35940 ft 425 kts 356°
2026-04-20 02:48 6.61110 104.15217 35940 ft 425 kts 356°
2026-04-20 02:49 6.67014 104.14901 35939 ft 423 kts 356°
2026-04-20 02:49 6.72886 104.14585 35940 ft 423 kts 356°
2026-04-20 02:50 6.78725 104.14272 35942 ft 423 kts 356°
2026-04-20 02:50 6.84603 104.13957 35940 ft 423 kts 356°
2026-04-20 02:51 6.90480 104.13642 35939 ft 423 kts 356°
2026-04-20 02:51 6.96357 104.13327 35943 ft 423 kts 356°
2026-04-20 02:52 7.02234 104.13012 35943 ft 422 kts 356°
2026-04-20 02:52 7.08055 104.12721 35945 ft 422 kts 356°
2026-04-20 02:53 7.13923 104.12427 35946 ft 422 kts 356°
2026-04-20 02:53 7.19792 104.12131 35946 ft 422 kts 356°
2026-04-20 02:54 7.25622 104.11836 35945 ft 422 kts 356°
2026-04-20 02:54 7.31488 104.11645 35946 ft 422 kts 358°
2026-04-20 02:55 7.37367 104.11504 35953 ft 422 kts 358°
2026-04-20 02:55 7.43251 104.11345 35949 ft 423 kts 358°
2026-04-20 02:56 7.49139 104.11181 35948 ft 423 kts 358°
2026-04-20 02:56 7.55026 104.11016 35948 ft 423 kts 358°
2026-04-20 02:57 7.60876 104.10853 35948 ft 423 kts 358°
2026-04-20 02:57 7.66767 104.10689 35948 ft 423 kts 358°
2026-04-20 02:58 7.72653 104.10525 35948 ft 423 kts 358°
2026-04-20 02:58 7.78541 104.10361 35948 ft 423 kts 358°
2026-04-20 02:59 7.84390 104.10198 35948 ft 423 kts 358°
2026-04-20 02:59 7.90277 104.10033 35948 ft 423 kts 358°
2026-04-20 03:00 7.96167 104.09868 35950 ft 423 kts 358°
2026-04-20 03:00 8.02051 104.09704 35951 ft 423 kts 358°
2026-04-20 03:01 8.07938 104.09540 35949 ft 423 kts 358°
2026-04-20 03:01 8.13804 104.09376 35950 ft 425 kts 358°
2026-04-20 03:02 8.19717 104.09210 35948 ft 425 kts 358°
2026-04-20 03:02 8.25627 104.09045 35945 ft 425 kts 358°
2026-04-20 03:03 8.31545 104.08880 35945 ft 425 kts 358°
2026-04-20 03:03 8.37411 104.08716 35946 ft 425 kts 358°
2026-04-20 03:04 8.43328 104.08550 35945 ft 425 kts 358°
2026-04-20 03:04 8.46286 104.08468 35739 ft 429 kts 358°
2026-04-20 03:04 8.49274 104.08384 35439 ft 426 kts 358°
2026-04-20 03:04 8.52219 104.08156 34988 ft 428 kts 351°
2026-04-20 03:05 8.55162 104.07597 34368 ft 429 kts 348°
2026-04-20 03:05 8.58080 104.06970 33743 ft 428 kts 348°
2026-04-20 03:05 8.60944 104.06391 33244 ft 423 kts 349°
2026-04-20 03:05 8.63840 104.05838 32639 ft 424 kts 349°
2026-04-20 03:06 8.66740 104.05304 32120 ft 426 kts 350°
2026-04-20 03:06 8.69669 104.04771 31521 ft 429 kts 350°
2026-04-20 03:06 8.72610 104.04239 30956 ft 430 kts 350°
2026-04-20 03:06 8.75561 104.03703 30387 ft 431 kts 350°
2026-04-20 03:07 8.78517 104.03167 29768 ft 432 kts 350°
2026-04-20 03:07 8.81462 104.02634 29251 ft 428 kts 350°
2026-04-20 03:07 8.84385 104.02103 28653 ft 425 kts 351°
2026-04-20 03:07 8.87246 104.01585 28119 ft 422 kts 351°
2026-04-20 03:08 8.90129 104.01062 27563 ft 419 kts 350°
2026-04-20 03:08 8.92987 104.00543 26994 ft 416 kts 350°
2026-04-20 03:08 8.95818 104.00030 26450 ft 412 kts 350°
2026-04-20 03:08 8.98640 103.99517 25905 ft 409 kts 350°
2026-04-20 03:09 9.01430 103.99011 25363 ft 407 kts 350°
2026-04-20 03:09 9.04205 103.98508 24829 ft 404 kts 350°
2026-04-20 03:09 9.06959 103.98008 24279 ft 401 kts 350°
2026-04-20 03:09 9.09700 103.97511 23760 ft 398 kts 350°
2026-04-20 03:10 9.12422 103.97017 23195 ft 395 kts 350°
2026-04-20 03:10 9.15105 103.96528 22723 ft 390 kts 350°
2026-04-20 03:10 9.17742 103.96050 22185 ft 389 kts 350°
2026-04-20 03:10 9.20393 103.95570 21685 ft 387 kts 350°
2026-04-20 03:11 9.23041 103.95089 21164 ft 385 kts 350°
2026-04-20 03:11 9.25664 103.94612 20654 ft 382 kts 351°
2026-04-20 03:11 9.28271 103.94138 20146 ft 379 kts 351°
2026-04-20 03:11 9.30855 103.93670 19653 ft 377 kts 351°
2026-04-20 03:12 9.33443 103.93201 19151 ft 377 kts 351°
2026-04-20 03:12 9.36018 103.92734 18657 ft 375 kts 351°
2026-04-20 03:12 9.38578 103.92269 18147 ft 374 kts 351°
2026-04-20 03:12 9.41094 103.91813 17664 ft 370 kts 351°
2026-04-20 03:13 9.43619 103.91355 17169 ft 368 kts 351°
2026-04-20 03:13 9.46130 103.90899 16687 ft 365 kts 351°
2026-04-20 03:13 9.48624 103.90445 16207 ft 363 kts 351°
2026-04-20 03:13 9.51099 103.89996 15725 ft 360 kts 351°
2026-04-20 03:14 9.53557 103.89550 15240 ft 357 kts 351°
2026-04-20 03:14 9.55994 103.89108 14774 ft 354 kts 350°
2026-04-20 03:14 9.58395 103.88671 14296 ft 347 kts 350°
2026-04-20 03:14 9.60718 103.88249 13847 ft 341 kts 351°
2026-04-20 03:15 9.63024 103.87829 13385 ft 334 kts 351°
2026-04-20 03:15 9.65285 103.87419 12972 ft 326 kts 350°
2026-04-20 03:15 9.67498 103.87018 12530 ft 320 kts 350°
2026-04-20 03:15 9.69672 103.86622 12114 ft 314 kts 350°
2026-04-20 03:16 9.71805 103.86235 11698 ft 310 kts 351°
2026-04-20 03:16 9.73907 103.85853 11283 ft 305 kts 351°
2026-04-20 03:16 9.75989 103.85475 10885 ft 301 kts 351°
2026-04-20 03:16 9.78039 103.85103 10486 ft 298 kts 350°
2026-04-20 03:17 9.80068 103.84734 10101 ft 295 kts 351°
2026-04-20 03:17 9.82075 103.84369 9701 ft 292 kts 351°
2026-04-20 03:17 9.84030 103.84013 9325 ft 288 kts 351°
2026-04-20 03:17 9.85996 103.83655 8910 ft 288 kts 351°
2026-04-20 03:18 9.87963 103.83295 8543 ft 286 kts 350°
2026-04-20 03:18 9.89907 103.82940 8163 ft 280 kts 350°
2026-04-20 03:18 9.91771 103.82598 7772 ft 265 kts 350°
2026-04-20 03:18 9.93538 103.82275 7444 ft 251 kts 350°
2026-04-20 03:19 9.95215 103.81968 7128 ft 240 kts 350°
2026-04-20 03:19 9.96822 103.81674 6825 ft 230 kts 350°
2026-04-20 03:19 9.98363 103.81392 6533 ft 221 kts 350°
2026-04-20 03:19 9.99847 103.81121 6275 ft 219 kts 350°
2026-04-20 03:20 10.01357 103.80845 6022 ft 220 kts 350°
2026-04-20 03:20 10.02856 103.80571 5743 ft 220 kts 350°
2026-04-20 03:20 10.04377 103.80292 5426 ft 224 kts 350°
2026-04-20 03:20 10.05914 103.80011 5102 ft 227 kts 351°
2026-04-20 03:21 10.07484 103.79732 4731 ft 229 kts 353°
2026-04-20 03:21 10.09054 103.79734 4379 ft 223 kts
2026-04-20 03:21 10.10576 103.79989 3987 ft 221 kts 12°
2026-04-20 03:21 10.12074 103.80237 3611 ft 221 kts 10°
2026-04-20 03:22 10.13595 103.80433 3251 ft 218 kts
2026-04-20 03:22 10.15065 103.80587 2941 ft 206 kts
2026-04-20 03:22 10.16443 103.80758 2719 ft 195 kts 15°
2026-04-20 03:22 10.17642 103.81341 2379 ft 186 kts 44°
2026-04-20 03:23 10.18334 103.82336 2349 ft 161 kts 69°
2026-04-20 03:23 10.18527 103.83390 2830 ft 148 kts 96°
2026-04-20 03:23 10.18396 103.84491 3313 ft 164 kts 98°
2026-04-20 03:23 10.18310 103.85651 2799 ft 170 kts 95°
2026-04-20 03:24 10.18218 103.86790 2257 ft 156 kts 98°
2026-04-20 03:24 10.18111 103.87811 1955 ft 136 kts 97°
2026-04-20 03:24 10.18013 103.88744 1748 ft 132 kts 97°
2026-04-20 03:24 10.17928 103.89656 1580 ft 128 kts 96°
2026-04-20 03:25 10.17842 103.90564 1405 ft 130 kts 97°
2026-04-20 03:25 10.17751 103.91474 1241 ft 128 kts 97°
2026-04-20 03:25 10.17663 103.92374 1061 ft 127 kts 97°
2026-04-20 03:25 10.17576 103.93252 919 ft 125 kts 97°
2026-04-20 03:26 10.17489 103.94136 757 ft 127 kts 97°
2026-04-20 03:26 10.17401 103.95026 608 ft 132 kts 97°
2026-04-20 03:26 10.17312 103.95947 445 ft 128 kts 95°
2026-04-20 03:26 10.17240 103.96841 307 ft 131 kts 97°
2026-04-20 03:27 10.17138 103.97764 157 ft 129 kts 96°
2026-04-20 03:27 10.17061 103.98628 64 ft 111 kts 97°
2026-04-20 03:27 10.16992 103.99230 65 ft 51 kts 97°
2026-04-20 03:27 10.16963 103.99514 65 ft 39 kts 95°
2026-04-20 03:28 10.16938 103.99771 64 ft 28 kts 97°
2026-04-20 03:28 10.16882 103.99961 58 ft 28 kts 116°
2026-04-20 03:28 10.16828 104.00046 60 ft 3 kts 127°
2026-04-20 03:29 10.16812 104.00068 65 ft 5 kts 127°
2026-04-20 03:29 10.16782 104.00110 61 ft 9 kts 126°
2026-04-20 03:29 10.16726 104.00160 65 ft 12 kts 165°
2026-04-20 03:29 10.16627 104.00156 61 ft 16 kts 187°
2026-04-20 03:30 10.16521 104.00144 65 ft 10 kts 193°
2026-04-20 03:30 10.16489 104.00078 63 ft 12 kts 270°
2026-04-20 03:30 10.16497 103.99985 65 ft 14 kts 276°
2026-04-20 03:30 10.16496 103.99920 58 ft 5 kts 235°
2026-04-20 03:31 10.16461 103.99916 63 ft 6 kts 175°
2026-04-20 03:31 10.16423 103.99913 58 ft 5 kts 185°
2026-04-20 03:31 10.16416 103.99912 59 ft 0 kts 185°